| time (UTC) | temp F | wind direction | speed MPH | gust MPH | rain 1hr in | rain 24hr in | rain mn in | humidity % | barometer mb |
| 20260903233246 | 94 | 187 | 2.0 | 5.0 | 0.00 | 0.00 | 0.00 | 48 | 1010.7 |
| 20260903232744 | 94 | 227 | 0.0 | 1.0 | 0.00 | 0.00 | 0.00 | 49 | 1010.6 |
| 20260903232241 | 94 | 202 | 1.0 | 1.0 | 0.00 | 0.00 | 0.00 | 50 | 1010.5 |
| 20260903231739 | 94 | 213 | 1.0 | 2.0 | 0.00 | 0.00 | 0.00 | 50 | 1010.6 |
| 20260903231235 | 94 | 215 | 2.0 | 2.0 | 0.00 | 0.00 | 0.00 | 50 | 1010.2 |
| 20260903230730 | 94 | 214 | 1.0 | 1.0 | 0.00 | 0.00 | 0.00 | 50 | 1010.4 |
| 20260903230225 | 93 | 237 | 1.0 | 2.0 | 0.00 | 0.00 | 0.00 | 51 | 1010.2 |
| 20260903225722 | 93 | 214 | 1.0 | 2.0 | 0.00 | 0.00 | 0.00 | 50 | 1010.3 |
| 20260903225218 | 94 | 213 | 5.0 | 6.0 | 0.00 | 0.00 | 0.00 | 49 | 1010.2 |
| 20260903224714 | 93 | 206 | 1.0 | 2.0 | 0.00 | 0.00 | 0.00 | 50 | 1010.3 |
| 20260903224210 | 94 | 306 | 2.0 | 3.0 | 0.00 | 0.00 | 0.00 | 50 | 1010.3 |
| 20260903223705 | 94 | 217 | 2.0 | 5.0 | 0.00 | 0.00 | 0.00 | 50 | 1010.3 |
| 20260903223203 | 94 | 218 | 1.0 | 1.0 | 0.00 | 0.00 | 0.00 | 49 | 1010.1 |
| 20260903222703 | 95 | 77 | 2.0 | 2.0 | 0.00 | 0.00 | 0.00 | 49 | 1010.1 |
| 20260903222202 | 97 | 210 | 5.0 | 10.0 | 0.00 | 0.00 | 0.00 | 46 | 1010.1 |
| 20260903221658 | 98 | 187 | 3.0 | 3.0 | 0.00 | 0.00 | 0.00 | 44 | 1010.0 |
| 20260903221156 | 98 | 218 | 1.0 | 3.0 | 0.00 | 0.00 | 0.00 | 43 | 1010.1 |
| 20260903220655 | 99 | 233 | 3.0 | 3.0 | 0.00 | 0.00 | 0.00 | 41 | 1009.9 |
| 20260903220149 | 99 | 259 | 3.0 | 5.0 | 0.00 | 0.00 | 0.00 | 42 | 1009.9 |
| 20260903215648 | 100 | 218 | 1.0 | 1.0 | 0.00 | 0.00 | 0.00 | 42 | 1010.0 |
| 20260903215144 | 99 | 230 | 3.0 | 3.0 | 0.00 | 0.00 | 0.00 | 42 | 1009.8 |
| 20260903214642 | 98 | 66 | 4.0 | 7.0 | 0.00 | 0.00 | 0.00 | 43 | 1009.9 |
| 20260903214138 | 98 | 220 | 2.0 | 3.0 | 0.00 | 0.00 | 0.00 | 41 | 1010.0 |
| 20260903213633 | 98 | 234 | 1.0 | 2.0 | 0.00 | 0.00 | 0.00 | 43 | 1009.9 |
| 20260903213128 | 102 | 204 | 1.0 | 2.0 | 0.00 | 0.00 | 0.00 | 38 | 1010.3 |
| 20260903212618 | 100 | 202 | 1.0 | 1.0 | 0.00 | 0.00 | 0.00 | 40 | 1010.4 |
| 20260903212114 | 99 | 207 | 1.0 | 2.0 | 0.00 | 0.00 | 0.00 | 41 | 1010.0 |
| 20260903211609 | 101 | 187 | 2.0 | 2.0 | 0.00 | 0.00 | 0.00 | 40 | 1010.4 |
| 20260903211106 | 100 | 190 | 1.0 | 2.0 | 0.00 | 0.00 | 0.00 | 41 | 1010.6 |
| 20260903210600 | 99 | 318 | 3.0 | 3.0 | 0.00 | 0.00 | 0.00 | 42 | 1010.5 |
| 20260903210056 | 98 | 240 | 2.0 | 2.0 | 0.00 | 0.00 | 0.00 | 44 | 1010.5 |
| 20260903205555 | 100 | 259 | 2.0 | 2.0 | 0.00 | 0.00 | 0.00 | 41 | 1010.7 |
| 20260903205050 | 101 | 194 | 1.0 | 1.0 | 0.00 | 0.00 | 0.00 | 41 | 1010.8 |
| 20260903204546 | 100 | 209 | 1.0 | 1.0 | 0.00 | 0.00 | 0.00 | 42 | 1010.8 |
| 20260903204041 | 101 | 189 | 1.0 | 1.0 | 0.00 | 0.00 | 0.00 | 40 | 1011.1 |
| 20260903203536 | 102 | 181 | 1.0 | 2.0 | 0.00 | 0.00 | 0.00 | 38 | 1011.1 |
| 20260903203036 | 102 | 247 | 1.0 | 1.0 | 0.00 | 0.00 | 0.00 | 38 | 1010.9 |
| 20260903202532 | 102 | 185 | 1.0 | 1.0 | 0.00 | 0.00 | 0.00 | 38 | 1011.3 |
| 20260903202027 | 102 | 188 | 1.0 | 2.0 | 0.00 | 0.00 | 0.00 | 39 | 1011.2 |
| 20260903201522 | 102 | 232 | 3.0 | 3.0 | 0.00 | 0.00 | 0.00 | 40 | 1011.5 |
| 20260903201021 | 100 | 192 | 1.0 | 2.0 | 0.00 | 0.00 | 0.00 | 41 | 1011.1 |
| 20260903200516 | 100 | 194 | 1.0 | 1.0 | 0.00 | 0.00 | 0.00 | 42 | 1011.4 |
| 20260903200011 | 101 | 160 | 1.0 | 1.0 | 0.00 | 0.00 | 0.00 | 40 | 1011.5 |
| 20260903195507 | 99 | 179 | 1.0 | 2.0 | 0.00 | 0.00 | 0.00 | 42 | 1011.5 |
| 20260903195002 | 101 | 182 | 2.0 | 3.0 | 0.00 | 0.00 | 0.00 | 41 | 1011.3 |
| 20260903194457 | 101 | 190 | 1.0 | 1.0 | 0.00 | 0.00 | 0.00 | 40 | 1011.5 |
| 20260903193953 | 101 | 189 | 1.0 | 1.0 | 0.00 | 0.00 | 0.00 | 41 | 1011.6 |
| 20260903193449 | 100 | 154 | 2.0 | 2.0 | 0.00 | 0.00 | 0.00 | 42 | 1011.8 |
| 20260903192943 | 99 | 155 | 2.0 | 2.0 | 0.00 | 0.00 | 0.00 | 43 | 1011.6 |
| 20260903192441 | 100 | 205 | 1.0 | 2.0 | 0.00 | 0.00 | 0.00 | 40 | 1011.8 |
| 20260903191935 | 99 | 128 | 2.0 | 2.0 | 0.00 | 0.00 | 0.00 | 40 | 1012.0 |
| 20260903191432 | 99 | 118 | 3.0 | 3.0 | 0.00 | 0.00 | 0.00 | 43 | 1011.9 |
| 20260903190931 | 98 | 194 | 1.0 | 2.0 | 0.00 | 0.00 | 0.00 | 45 | 1012.2 |
| 20260903190425 | 98 | 191 | 1.0 | 2.0 | 0.00 | 0.00 | 0.00 | 45 | 1012.1 |
| 20260903185919 | 99 | 241 | 1.0 | 1.0 | 0.00 | 0.00 | 0.00 | 43 | 1012.4 |
| 20260903185415 | 98 | 164 | 2.0 | 2.0 | 0.00 | 0.00 | 0.00 | 45 | 1012.6 |
| 20260903184910 | 98 | 192 | 2.0 | 2.0 | 0.00 | 0.00 | 0.00 | 46 | 1012.6 |
| 20260903184407 | 97 | 169 | 2.0 | 2.0 | 0.00 | 0.00 | 0.00 | 46 | 1012.7 |
| 20260903183906 | 98 | 164 | 3.0 | 3.0 | 0.00 | 0.00 | 0.00 | 45 | 1012.6 |
| 20260903183401 | 96 | 193 | 2.0 | 2.0 | 0.00 | 0.00 | 0.00 | 48 | 1012.8 |
| 20260903182901 | 97 | 355 | 2.0 | 2.0 | 0.00 | 0.00 | 0.00 | 48 | 1012.9 |
| 20260903182400 | 96 | 214 | 3.0 | 3.0 | 0.00 | 0.00 | 0.00 | 48 | 1013.1 |
| 20260903181855 | 97 | 217 | 1.0 | 1.0 | 0.00 | 0.00 | 0.00 | 47 | 1013.3 |
| 20260903181349 | 97 | 185 | 2.0 | 2.0 | 0.00 | 0.00 | 0.00 | 47 | 1013.2 |
| 20260903180844 | 97 | 195 | 0.0 | 1.0 | 0.00 | 0.00 | 0.00 | 48 | 1013.1 |
| 20260903180343 | 97 | 196 | 1.0 | 1.0 | 0.00 | 0.00 | 0.00 | 47 | 1013.2 |
| 20260903175843 | 96 | 180 | 2.0 | 3.0 | 0.00 | 0.00 | 0.00 | 49 | 1013.3 |
| 20260903175337 | 96 | 42 | 3.0 | 5.0 | 0.00 | 0.00 | 0.00 | 48 | 1013.4 |
| 20260903174832 | 95 | 166 | 1.0 | 2.0 | 0.00 | 0.00 | 0.00 | 49 | 1013.5 |
| 20260903174327 | 95 | 214 | 3.0 | 3.0 | 0.00 | 0.00 | 0.00 | 49 | 1013.5 |
| 20260903173826 | 94 | 110 | 4.0 | 6.0 | 0.00 | 0.00 | 0.00 | 49 | 1013.5 |
| 20260903173322 | 94 | 188 | 1.0 | 2.0 | 0.00 | 0.00 | 0.00 | 51 | 1013.6 |
| 20260903172818 | 95 | 164 | 2.0 | 2.0 | 0.00 | 0.00 | 0.00 | 53 | 1013.6 |
| 20260903172312 | 93 | 193 | 0.0 | 1.0 | 0.00 | 0.00 | 0.00 | 55 | 1013.5 |
| 20260903171802 | 93 | 248 | 1.0 | 1.0 | 0.00 | 0.00 | 0.00 | 57 | 1013.7 |
| 20260903171258 | 93 | 174 | 1.0 | 2.0 | 0.00 | 0.00 | 0.00 | 55 | 1013.8 |
| 20260903170756 | 93 | 163 | 2.0 | 2.0 | 0.00 | 0.00 | 0.00 | 53 | 1013.8 |
| 20260903170252 | 93 | 220 | 2.0 | 3.0 | 0.00 | 0.00 | 0.00 | 55 | 1013.6 |
| 20260903165750 | 94 | 183 | 2.0 | 2.0 | 0.00 | 0.00 | 0.00 | 56 | 1013.6 |
| 20260903165245 | 93 | 206 | 2.0 | 2.0 | 0.00 | 0.00 | 0.00 | 56 | 1014.1 |
| 20260903164739 | 93 | 206 | 1.0 | 2.0 | 0.00 | 0.00 | 0.00 | 57 | 1014.1 |
| 20260903164236 | 93 | 156 | 1.0 | 2.0 | 0.00 | 0.00 | 0.00 | 57 | 1014.1 |
| 20260903163734 | 92 | 138 | 0.0 | 1.0 | 0.00 | 0.00 | 0.00 | 58 | 1014.2 |
| 20260903163231 | 92 | 202 | 1.0 | 1.0 | 0.00 | 0.00 | 0.00 | 59 | 1014.2 |
| 20260903162727 | 92 | 82 | 2.0 | 3.0 | 0.00 | 0.00 | 0.00 | 59 | 1014.3 |
| 20260903162223 | 93 | 200 | 2.0 | 2.0 | 0.00 | 0.00 | 0.00 | 60 | 1014.3 |
| 20260903161719 | 91 | 156 | 3.0 | 3.0 | 0.00 | 0.00 | 0.00 | 61 | 1014.1 |
| 20260903161214 | 92 | 198 | 3.0 | 3.0 | 0.00 | 0.00 | 0.00 | 59 | 1014.2 |
| 20260903160710 | 92 | 167 | 2.0 | 2.0 | 0.00 | 0.00 | 0.00 | 62 | 1014.1 |
| 20260903160208 | 90 | 169 | 2.0 | 3.0 | 0.00 | 0.00 | 0.00 | 62 | 1014.2 |
| 20260903155707 | 90 | 212 | 2.0 | 2.0 | 0.00 | 0.00 | 0.00 | 62 | 1014.3 |
| 20260903155202 | 90 | 89 | 2.0 | 2.0 | 0.00 | 0.00 | 0.00 | 63 | 1014.0 |
| 20260903154658 | 91 | 135 | 2.0 | 3.0 | 0.00 | 0.00 | 0.00 | 64 | 1014.1 |
| 20260903154154 | 88 | 163 | 2.0 | 2.0 | 0.00 | 0.00 | 0.00 | 66 | 1014.1 |
| 20260903153649 | 86 | 215 | 2.0 | 3.0 | 0.00 | 0.00 | 0.00 | 73 | 1014.1 |
| 20260903153145 | 86 | 209 | 1.0 | 2.0 | 0.00 | 0.00 | 0.00 | 73 | 1014.2 |
| 20260903152641 | 87 | 254 | 1.0 | 1.0 | 0.00 | 0.00 | 0.00 | 73 | 1014.2 |
| 20260903152137 | 86 | 271 | 2.0 | 2.0 | 0.00 | 0.00 | 0.00 | 73 | 1014.4 |
| 20260903151637 | 84 | 213 | 1.0 | 1.0 | 0.00 | 0.00 | 0.00 | 75 | 1014.2 |
| 20260903151131 | 84 | 185 | 1.0 | 2.0 | 0.00 | 0.00 | 0.00 | 77 | 1014.1 |
| 20260903150626 | 83 | 192 | 1.0 | 1.0 | 0.00 | 0.00 | 0.00 | 77 | 1014.1 |
| 20260903150121 | 83 | 192 | 2.0 | 3.0 | 0.00 | 0.00 | 0.00 | 78 | 1014.4 |
| 20260903145621 | 82 | 193 | 1.0 | 2.0 | 0.00 | 0.00 | 0.00 | 79 | 1014.3 |
| 20260903145116 | 82 | 200 | 1.0 | 2.0 | 0.00 | 0.00 | 0.00 | 79 | 1014.2 |
| 20260903144614 | 82 | 193 | 1.0 | 2.0 | 0.00 | 0.00 | 0.00 | 80 | 1014.3 |
| 20260903144111 | 82 | 192 | 1.0 | 1.0 | 0.00 | 0.00 | 0.00 | 80 | 1014.4 |
| 20260903143607 | 82 | 194 | 2.0 | 2.0 | 0.00 | 0.00 | 0.00 | 81 | 1014.2 |
| 20260903143102 | 82 | 162 | 2.0 | 2.0 | 0.00 | 0.00 | 0.00 | 80 | 1014.1 |
| 20260903142557 | 82 | 154 | 2.0 | 2.0 | 0.00 | 0.00 | 0.00 | 79 | 1014.4 |
| 20260903142054 | 82 | 171 | 1.0 | 2.0 | 0.00 | 0.00 | 0.00 | 81 | 1014.2 |
| 20260903141549 | 81 | 137 | 1.0 | 2.0 | 0.00 | 0.00 | 0.00 | 81 | 1014.3 |
| 20260903141044 | 81 | 110 | 3.0 | 3.0 | 0.00 | 0.00 | 0.00 | 81 | 1014.4 |
| 20260903140540 | 81 | 202 | 2.0 | 2.0 | 0.00 | 0.00 | 0.00 | 82 | 1014.3 |
| 20260903140035 | 80 | 153 | 2.0 | 2.0 | 0.00 | 0.00 | 0.00 | 83 | 1014.5 |
| 20260903135530 | 80 | 271 | 1.0 | 2.0 | 0.00 | 0.00 | 0.00 | 83 | 1014.3 |
| 20260903135025 | 81 | 213 | 2.0 | 2.0 | 0.00 | 0.00 | 0.00 | 83 | 1014.4 |
| 20260903134525 | 80 | 186 | 1.0 | 1.0 | 0.00 | 0.00 | 0.00 | 84 | 1014.4 |
| 20260903134021 | 80 | 180 | 1.0 | 1.0 | 0.00 | 0.00 | 0.00 | 84 | 1014.5 |
| 20260903133518 | 80 | 198 | 2.0 | 2.0 | 0.00 | 0.00 | 0.00 | 84 | 1014.2 |
| 20260903133014 | 80 | 216 | 2.0 | 2.0 | 0.00 | 0.00 | 0.00 | 85 | 1014.6 |
| 20260903132508 | 81 | 197 | 1.0 | 1.0 | 0.00 | 0.00 | 0.00 | 84 | 1014.6 |
| 20260903132004 | 81 | 179 | 3.0 | 3.0 | 0.00 | 0.00 | 0.00 | 83 | 1014.5 |
| 20260903131458 | 81 | 171 | 2.0 | 2.0 | 0.00 | 0.00 | 0.00 | 83 | 1014.5 |
| 20260903130956 | 81 | 200 | 1.0 | 1.0 | 0.00 | 0.00 | 0.00 | 83 | 1014.5 |
| 20260903130452 | 80 | 202 | 1.0 | 1.0 | 0.00 | 0.00 | 0.00 | 84 | 1014.4 |
| 20260903125951 | 79 | 232 | 1.0 | 1.0 | 0.00 | 0.00 | 0.00 | 88 | 1014.4 |
| 20260903125450 | 78 | 206 | 0.0 | 1.0 | 0.00 | 0.00 | 0.00 | 88 | 1014.2 |
| 20260903124945 | 78 | 158 | 1.0 | 2.0 | 0.00 | 0.00 | 0.00 | 88 | 1014.3 |
| 20260903124440 | 78 | 177 | 1.0 | 2.0 | 0.00 | 0.00 | 0.00 | 88 | 1014.3 |
| 20260903123939 | 78 | 194 | 1.0 | 1.0 | 0.00 | 0.00 | 0.00 | 88 | 1014.4 |
| 20260903123434 | 78 | 193 | 1.0 | 1.0 | 0.00 | 0.00 | 0.00 | 88 | 1014.1 |
| 20260903122932 | 78 | 191 | 1.0 | 1.0 | 0.00 | 0.00 | 0.00 | 88 | 1014.0 |
| 20260903122427 | 78 | 193 | 2.0 | 2.0 | 0.00 | 0.00 | 0.00 | 88 | 1013.7 |
| 20260903121926 | 78 | 192 | 1.0 | 1.0 | 0.00 | 0.00 | 0.00 | 88 | 1014.1 |
| 20260903121421 | 78 | 194 | 1.0 | 1.0 | 0.00 | 0.00 | 0.00 | 88 | 1013.8 |
| 20260903120918 | 78 | 201 | 1.0 | 1.0 | 0.00 | 0.00 | 0.00 | 88 | 1013.8 |
| 20260903120416 | 78 | 201 | 0.0 | 1.0 | 0.00 | 0.00 | 0.00 | 88 | 1014.0 |
| 20260903115915 | 78 | 201 | 0.0 | 0.0 | 0.00 | 0.00 | 0.00 | 88 | 1014.0 |
| 20260903115415 | 79 | 191 | 1.0 | 1.0 | 0.00 | 0.00 | 0.00 | 88 | 1013.7 |
| 20260903114915 | 79 | 183 | 2.0 | 2.0 | 0.00 | 0.00 | 0.00 | 87 | 1014.0 |
| 20260903114411 | 81 | 205 | 0.0 | 1.0 | 0.00 | 0.00 | 0.00 | 84 | 1013.7 |
| 20260903113906 | 81 | 200 | 0.0 | 1.0 | 0.00 | 0.00 | 0.00 | 85 | 1013.8 |
| 20260903113402 | 81 | 201 | 0.0 | 1.0 | 0.00 | 0.00 | 0.00 | 85 | 1013.7 |
| 20260903112857 | 81 | 200 | 0.0 | 1.0 | 0.00 | 0.00 | 0.00 | 84 | 1013.8 |
| 20260903112353 | 80 | 201 | 0.0 | 1.0 | 0.00 | 0.00 | 0.00 | 85 | 1013.7 |
| 20260903111851 | 80 | 193 | 0.0 | 1.0 | 0.00 | 0.00 | 0.00 | 86 | 1013.6 |
| 20260903111346 | 78 | 204 | 1.0 | 1.0 | 0.00 | 0.00 | 0.00 | 89 | 1013.7 |
| 20260903110843 | 78 | 207 | 0.0 | 0.0 | 0.00 | 0.00 | 0.00 | 90 | 1013.7 |
| 20260903110338 | 78 | 209 | 0.0 | 1.0 | 0.00 | 0.00 | 0.00 | 90 | 1013.7 |
| 20260903105832 | 78 | 208 | 1.0 | 1.0 | 0.00 | 0.00 | 0.00 | 90 | 1013.7 |
| 20260903105327 | 78 | 214 | 0.0 | 0.0 | 0.00 | 0.00 | 0.00 | 90 | 1013.6 |
| 20260903104827 | 78 | 198 | 0.0 | 0.0 | 0.00 | 0.00 | 0.00 | 90 | 1013.5 |
| 20260903104322 | 78 | 197 | 1.0 | 1.0 | 0.00 | 0.00 | 0.00 | 90 | 1013.7 |
| 20260903103819 | 78 | 201 | 2.0 | 2.0 | 0.00 | 0.00 | 0.00 | 91 | 1013.6 |
| 20260903103314 | 78 | 203 | 1.0 | 1.0 | 0.00 | 0.00 | 0.00 | 91 | 1013.5 |
| 20260903102810 | 78 | 227 | 1.0 | 2.0 | 0.00 | 0.00 | 0.00 | 91 | 1013.6 |
| 20260903102306 | 78 | 234 | 0.0 | 1.0 | 0.00 | 0.00 | 0.00 | 90 | 1013.4 |
| 20260903101803 | 78 | 224 | 1.0 | 1.0 | 0.00 | 0.00 | 0.00 | 90 | 1013.5 |
| 20260903101259 | 78 | 213 | 0.0 | 0.0 | 0.00 | 0.00 | 0.00 | 90 | 1013.2 |
| 20260903100754 | 78 | 192 | 2.0 | 2.0 | 0.00 | 0.00 | 0.00 | 90 | 1013.5 |
| 20260903100248 | 79 | 206 | 1.0 | 2.0 | 0.00 | 0.00 | 0.00 | 89 | 1013.5 |
| 20260903095745 | 79 | 212 | 1.0 | 1.0 | 0.00 | 0.00 | 0.00 | 89 | 1013.5 |
| 20260903095240 | 79 | 201 | 0.0 | 1.0 | 0.00 | 0.00 | 0.00 | 88 | 1013.5 |
| 20260903094735 | 80 | 202 | 0.0 | 0.0 | 0.00 | 0.00 | 0.00 | 85 | 1013.4 |
| 20260903094230 | 80 | 200 | 0.0 | 1.0 | 0.00 | 0.00 | 0.00 | 85 | 1013.6 |
| 20260903093725 | 80 | 205 | 1.0 | 1.0 | 0.00 | 0.00 | 0.00 | 85 | 1013.5 |
| 20260903093221 | 80 | 201 | 0.0 | 1.0 | 0.00 | 0.00 | 0.00 | 85 | 1013.5 |
| 20260903092720 | 80 | 205 | 0.0 | 0.0 | 0.00 | 0.00 | 0.00 | 85 | 1013.5 |
| 20260903092215 | 80 | 203 | 0.0 | 0.0 | 0.00 | 0.00 | 0.00 | 85 | 1013.5 |
| 20260903091714 | 79 | 208 | 0.0 | 1.0 | 0.00 | 0.00 | 0.00 | 87 | 1013.6 |
| 20260903091209 | 78 | 220 | 1.0 | 1.0 | 0.00 | 0.00 | 0.00 | 89 | 1014.1 |
| 20260903090704 | 78 | 220 | 0.0 | 0.0 | 0.00 | 0.00 | 0.00 | 89 | 1013.7 |
| 20260903090203 | 78 | 220 | 0.0 | 0.0 | 0.00 | 0.00 | 0.00 | 89 | 1013.7 |
| 20260903085701 | 78 | 220 | 0.0 | 0.0 | 0.00 | 0.00 | 0.00 | 89 | 1013.8 |
| 20260903085157 | 78 | 220 | 0.0 | 0.0 | 0.00 | 0.00 | 0.00 | 89 | 1013.7 |
| 20260903084655 | 78 | 219 | 0.0 | 0.0 | 0.00 | 0.00 | 0.00 | 88 | 1013.6 |
| 20260903084149 | 78 | 219 | 0.0 | 0.0 | 0.00 | 0.00 | 0.00 | 88 | 1013.7 |
| 20260903083646 | 78 | 220 | 0.0 | 1.0 | 0.00 | 0.00 | 0.00 | 88 | 1013.8 |
| 20260903083145 | 78 | 219 | 0.0 | 0.0 | 0.00 | 0.00 | 0.00 | 87 | 1013.7 |
| 20260903082639 | 78 | 219 | 0.0 | 0.0 | 0.00 | 0.00 | 0.00 | 87 | 1013.6 |
| 20260903082136 | 78 | 221 | 0.0 | 0.0 | 0.00 | 0.00 | 0.00 | 86 | 1013.7 |
| 20260903081630 | 79 | 220 | 0.0 | 0.0 | 0.00 | 0.00 | 0.00 | 85 | 1013.7 |
| 20260903081126 | 80 | 220 | 0.0 | 0.0 | 0.00 | 0.00 | 0.00 | 84 | 1013.6 |
| 20260903080622 | 80 | 211 | 0.0 | 0.0 | 0.00 | 0.00 | 0.00 | 82 | 1013.6 |
| 20260903080120 | 81 | 209 | 0.0 | 1.0 | 0.00 | 0.00 | 0.00 | 82 | 1013.6 |
| 20260903075613 | 81 | 209 | 0.0 | 0.0 | 0.00 | 0.00 | 0.00 | 82 | 1013.7 |
| 20260903075109 | 81 | 207 | 0.0 | 1.0 | 0.00 | 0.00 | 0.00 | 81 | 1013.8 |
| 20260903074607 | 81 | 215 | 0.0 | 1.0 | 0.00 | 0.00 | 0.00 | 81 | 1014.0 |
| 20260903074102 | 80 | 215 | 0.0 | 1.0 | 0.00 | 0.00 | 0.00 | 82 | 1013.7 |
| 20260903073557 | 79 | 212 | 0.0 | 0.0 | 0.00 | 0.00 | 0.00 | 85 | 1013.6 |
| 20260903073053 | 79 | 218 | 0.0 | 0.0 | 0.00 | 0.00 | 0.00 | 84 | 1013.5 |
| 20260903072549 | 79 | 223 | 0.0 | 0.0 | 0.00 | 0.00 | 0.00 | 84 | 1013.8 |
| 20260903072045 | 79 | 272 | 1.0 | 2.0 | 0.00 | 0.00 | 0.00 | 84 | 1013.6 |
| 20260903071541 | 79 | 222 | 0.0 | 1.0 | 0.00 | 0.00 | 0.00 | 84 | 1013.7 |
| 20260903071036 | 79 | 216 | 0.0 | 1.0 | 0.00 | 0.00 | 0.00 | 84 | 1013.8 |
| 20260903070536 | 80 | 216 | 0.0 | 0.0 | 0.00 | 0.00 | 0.00 | 84 | 1014.2 |
| 20260903070032 | 80 | 223 | 1.0 | 1.0 | 0.00 | 0.00 | 0.00 | 83 | 1013.8 |
| 20260903065526 | 80 | 227 | 0.0 | 1.0 | 0.00 | 0.00 | 0.00 | 82 | 1013.8 |
| 20260903065025 | 81 | 213 | 1.0 | 1.0 | 0.00 | 0.00 | 0.00 | 81 | 1014.2 |
| 20260903064525 | 82 | 243 | 0.0 | 1.0 | 0.00 | 0.00 | 0.00 | 79 | 1013.8 |
| 20260903064021 | 82 | 214 | 0.0 | 1.0 | 0.00 | 0.00 | 0.00 | 78 | 1014.1 |
| 20260903063516 | 83 | 213 | 0.0 | 1.0 | 0.00 | 0.00 | 0.00 | 77 | 1014.0 |
| 20260903063011 | 83 | 210 | 0.0 | 1.0 | 0.00 | 0.00 | 0.00 | 77 | 1013.8 |
| 20260903062506 | 82 | 206 | 1.0 | 1.0 | 0.00 | 0.00 | 0.00 | 78 | 1014.1 |
| 20260903062002 | 81 | 219 | 0.0 | 1.0 | 0.00 | 0.00 | 0.00 | 79 | 1014.0 |
| 20260903061456 | 81 | 224 | 0.0 | 1.0 | 0.00 | 0.00 | 0.00 | 80 | 1014.1 |
| 20260903060951 | 81 | 222 | 0.0 | 0.0 | 0.00 | 0.00 | 0.00 | 79 | 1014.2 |
| 20260903060446 | 81 | 224 | 0.0 | 0.0 | 0.00 | 0.00 | 0.00 | 78 | 1014.1 |
| 20260903055945 | 82 | 231 | 1.0 | 1.0 | 0.00 | 0.00 | 0.00 | 78 | 1014.3 |
| 20260903055443 | 82 | 218 | 1.0 | 1.0 | 0.00 | 0.00 | 0.00 | 77 | 1014.3 |
| 20260903054943 | 82 | 228 | 1.0 | 1.0 | 0.00 | 0.00 | 0.00 | 77 | 1014.0 |
| 20260903054437 | 82 | 220 | 0.0 | 1.0 | 0.00 | 0.00 | 0.00 | 76 | 1014.2 |
| 20260903053933 | 82 | 225 | 1.0 | 1.0 | 0.00 | 0.00 | 0.00 | 75 | 1014.2 |
| 20260903053433 | 83 | 207 | 0.0 | 1.0 | 0.00 | 0.00 | 0.00 | 74 | 1014.1 |
| 20260903052930 | 84 | 232 | 2.0 | 2.0 | 0.00 | 0.00 | 0.00 | 72 | 1014.0 |
| 20260903052425 | 85 | 208 | 0.0 | 1.0 | 0.00 | 0.00 | 0.00 | 70 | 1014.1 |
| 20260903051921 | 85 | 202 | 1.0 | 3.0 | 0.00 | 0.00 | 0.00 | 69 | 1014.3 |
| 20260903051416 | 85 | 223 | 0.0 | 1.0 | 0.00 | 0.00 | 0.00 | 68 | 1014.0 |
| 20260903050912 | 85 | 267 | 2.0 | 3.0 | 0.00 | 0.00 | 0.00 | 68 | 1013.8 |
| 20260903050410 | 85 | 200 | 1.0 | 2.0 | 0.00 | 0.00 | 0.00 | 69 | 1013.8 |
| 20260903045905 | 84 | 222 | 1.0 | 1.0 | 0.00 | 0.00 | 0.00 | 71 | 1013.3 |
| 20260903045401 | 84 | 225 | 3.0 | 3.0 | 0.00 | 0.00 | 0.00 | 70 | 1013.4 |
| 20260903044858 | 84 | 226 | 0.0 | 1.0 | 0.00 | 0.00 | 0.00 | 70 | 1013.5 |
| 20260903044357 | 84 | 249 | 0.0 | 1.0 | 0.00 | 0.00 | 0.00 | 69 | 1013.6 |
| 20260903043854 | 84 | 228 | 1.0 | 3.0 | 0.00 | 0.00 | 0.00 | 69 | 1013.2 |
| 20260903043349 | 85 | 202 | 0.0 | 1.0 | 0.00 | 0.00 | 0.00 | 69 | 1013.4 |
| 20260903042848 | 85 | 251 | 1.0 | 1.0 | 0.00 | 0.00 | 0.00 | 69 | 1013.5 |
| 20260903042343 | 86 | 219 | 0.0 | 0.0 | 0.00 | 0.00 | 0.00 | 68 | 1013.4 |
| 20260903041839 | 87 | 231 | 1.0 | 1.0 | 0.00 | 0.00 | 0.00 | 67 | 1013.3 |
| 20260903041335 | 87 | 231 | 1.0 | 1.0 | 0.00 | 0.00 | 0.00 | 65 | 1013.2 |
| 20260903040831 | 87 | 170 | 2.0 | 2.0 | 0.00 | 0.00 | 0.00 | 65 | 1013.2 |
| 20260903040329 | 86 | 208 | 0.0 | 1.0 | 0.00 | 0.00 | 0.00 | 64 | 1013.3 |
| 20260903035826 | 85 | 214 | 0.0 | 1.0 | 0.00 | 0.00 | 0.00 | 64 | 1013.0 |
| 20260903035321 | 84 | 212 | 0.0 | 1.0 | 0.00 | 0.00 | 0.00 | 64 | 1013.3 |
| 20260903034816 | 83 | 230 | 0.0 | 1.0 | 0.00 | 0.00 | 0.00 | 66 | 1013.3 |
| 20260903034311 | 80 | 326 | 2.0 | 2.0 | 0.00 | 0.00 | 0.00 | 68 | 1012.9 |
| 20260903033806 | 81 | 201 | 0.0 | 0.0 | 0.00 | 0.00 | 0.00 | 69 | 1013.2 |
| 20260903033301 | 81 | 201 | 0.0 | 0.0 | 0.00 | 0.00 | 0.00 | 67 | 1013.0 |
| 20260903032755 | 81 | 201 | 0.0 | 0.0 | 0.00 | 0.00 | 0.00 | 66 | 1013.0 |
| 20260903032252 | 81 | 201 | 0.0 | 0.0 | 0.00 | 0.00 | 0.00 | 65 | 1012.6 |
| 20260903031747 | 81 | 201 | 0.0 | 0.0 | 0.00 | 0.00 | 0.00 | 65 | 1012.5 |
| 20260903031241 | 82 | 201 | 0.0 | 0.0 | 0.00 | 0.00 | 0.00 | 65 | 1012.6 |
| 20260903030737 | 83 | 201 | 0.0 | 0.0 | 0.00 | 0.00 | 0.00 | 63 | 1012.6 |
| 20260903030233 | 83 | 202 | 1.0 | 1.0 | 0.00 | 0.00 | 0.00 | 62 | 1012.4 |
| 20260903025728 | 83 | 206 | 0.0 | 1.0 | 0.00 | 0.00 | 0.00 | 63 | 1012.4 |
| 20260903025224 | 84 | 200 | 0.0 | 1.0 | 0.00 | 0.00 | 0.00 | 62 | 1012.3 |
| 20260903024723 | 84 | 200 | 0.0 | 1.0 | 0.00 | 0.00 | 0.00 | 62 | 1012.2 |
| 20260903024222 | 84 | 200 | 0.0 | 1.0 | 0.00 | 0.00 | 0.00 | 61 | 1012.2 |
| 20260903023719 | 84 | 194 | 0.0 | 1.0 | 0.00 | 0.00 | 0.00 | 61 | 1012.1 |
| 20260903023214 | 84 | 200 | 0.0 | 1.0 | 0.00 | 0.00 | 0.00 | 61 | 1012.1 |
| 20260903022714 | 83 | 201 | 0.0 | 1.0 | 0.00 | 0.00 | 0.00 | 62 | 1012.0 |
| 20260903022212 | 83 | 200 | 0.0 | 0.0 | 0.00 | 0.00 | 0.00 | 63 | 1011.9 |
| 20260903021707 | 84 | 200 | 0.0 | 0.0 | 0.00 | 0.00 | 0.00 | 61 | 1011.8 |
| 20260903021202 | 84 | 200 | 0.0 | 0.0 | 0.00 | 0.00 | 0.00 | 60 | 1011.8 |
| 20260903020657 | 84 | 198 | 0.0 | 0.0 | 0.00 | 0.00 | 0.00 | 59 | 1011.6 |
| 20260903020157 | 85 | 198 | 0.0 | 0.0 | 0.00 | 0.00 | 0.00 | 59 | 1011.5 |
| 20260903015652 | 86 | 198 | 0.0 | 0.0 | 0.00 | 0.00 | 0.00 | 58 | 1011.4 |
| 20260903015148 | 87 | 194 | 0.0 | 0.0 | 0.00 | 0.00 | 0.00 | 57 | 1011.4 |
| 20260903014642 | 87 | 194 | 1.0 | 1.0 | 0.00 | 0.00 | 0.00 | 55 | 1011.4 |
| 20260903014142 | 88 | 202 | 1.0 | 1.0 | 0.00 | 0.00 | 0.00 | 55 | 1011.4 |
| 20260903013636 | 89 | 201 | 0.0 | 1.0 | 0.00 | 0.00 | 0.00 | 53 | 1011.3 |
| 20260903013131 | 89 | 202 | 1.0 | 1.0 | 0.00 | 0.00 | 0.00 | 53 | 1011.5 |
| 20260903012630 | 90 | 202 | 0.0 | 1.0 | 0.00 | 0.00 | 0.00 | 51 | 1011.5 |
| 20260903012129 | 90 | 201 | 1.0 | 1.0 | 0.00 | 0.00 | 0.00 | 50 | 1011.5 |
| 20260903011629 | 90 | 202 | 1.0 | 1.0 | 0.00 | 0.00 | 0.00 | 50 | 1011.6 |
| 20260903011123 | 91 | 203 | 0.0 | 1.0 | 0.00 | 0.00 | 0.00 | 49 | 1011.3 |
| 20260903010619 | 92 | 205 | 0.0 | 1.0 | 0.00 | 0.00 | 0.00 | 47 | 1011.4 |
| 20260903010117 | 93 | 209 | 0.0 | 1.0 | 0.00 | 0.00 | 0.00 | 46 | 1011.3 |
| 20260903005612 | 94 | 206 | 0.0 | 1.0 | 0.00 | 0.00 | 0.00 | 46 | 1011.5 |
| 20260903005108 | 94 | 210 | 0.0 | 0.0 | 0.00 | 0.00 | 0.00 | 45 | 1011.3 |
| 20260903004608 | 92 | 227 | 0.0 | 0.0 | 0.00 | 0.00 | 0.00 | 47 | 1011.3 |
| 20260903004103 | 92 | 227 | 0.0 | 0.0 | 0.00 | 0.00 | 0.00 | 47 | 1011.4 |
| 20260903003558 | 93 | 227 | 0.0 | 0.0 | 0.00 | 0.00 | 0.00 | 46 | 1011.3 |
| 20260903003054 | 93 | 220 | 0.0 | 0.0 | 0.00 | 0.00 | 0.00 | 45 | 1011.3 |
| 20260903002548 | 94 | 216 | 0.0 | 0.0 | 0.00 | 0.00 | 0.00 | 44 | 1011.1 |
| 20260903002042 | 95 | 215 | 1.0 | 1.0 | 0.00 | 0.00 | 0.00 | 43 | 1011.3 |
| 20260903001538 | 96 | 238 | 1.0 | 1.0 | 0.00 | 0.00 | 0.00 | 42 | 1011.3 |
| 20260903001037 | 97 | 223 | 1.0 | 1.0 | 0.00 | 0.00 | 0.00 | 41 | 1011.3 |
| 20260903000532 | 97 | 236 | 1.0 | 2.0 | 0.00 | 0.00 | 0.00 | 40 | 1011.5 |
| 20260903000026 | 97 | 215 | 0.0 | 1.0 | 0.00 | 0.00 | 0.00 | 40 | 1011.1 |
| 20260902235526 | 97 | 256 | 1.0 | 1.0 | 0.00 | 0.00 | 0.00 | 40 | 1011.3 |
| 20260902235021 | 97 | 220 | 1.0 | 1.0 | 0.00 | 0.00 | 0.00 | 40 | 1011.3 |
| 20260902234521 | 97 | 210 | 1.0 | 1.0 | 0.00 | 0.00 | 0.00 | 41 | 1011.4 |
| 20260902234019 | 98 | 237 | 1.0 | 1.0 | 0.00 | 0.00 | 0.00 | 40 | 1011.4 |